EDT,Max TemperatureF,Mean TemperatureF,Min TemperatureF,Max Dew PointF,MeanDew PointF,Min DewpointF,Max Humidity, Mean Humidity, Min Humidity, Max Sea Level PressureIn, Mean Sea Level PressureIn, Min Sea Level PressureIn, Max VisibilityMiles, Mean VisibilityMiles, Min VisibilityMiles, Max Wind SpeedMPH, Mean Wind SpeedMPH, Max Gust SpeedMPH,PrecipitationIn, CloudCover, Events, WindDirDegrees
2011-10-1,51,46,40,49,44,38,100,93,86,29.90,29.79,29.70,10,6,0,23,12,28,0.08,7,Rain,349
2011-10-2,58,49,39,47,43,37,93,77,61,29.91,29.83,29.76,10,8,0,21,6,28,0.50,8,Fog-Rain,33
2011-10-3,50,46,41,46,42,39,100,86,71,30.10,29.98,29.88,10,6,0,13,5,17,T,6,Fog,116
2011-10-4,56,51,45,50,47,42,96,87,77,30.15,30.10,30.05,10,9,2,16,7,21,0.03,8,Rain,325
2011-10-5,62,53,43,49,43,34,93,66,39,30.35,30.20,30.12,10,10,8,21,10,26,0.00,2,,331
2011-10-6,62,49,35,37,33,27,85,55,25,30.43,30.39,30.34,10,10,10,10,5,14,0.00,0,,322
2011-10-7,67,52,37,42,36,30,92,60,27,30.50,30.46,30.39,10,10,10,10,3,30,0.00,0,,251
2011-10-8,75,61,46,50,44,37,69,54,38,30.54,30.49,30.44,10,10,10,8,4,31,0.00,0,,233
2011-10-9,78,65,51,54,50,47,89,63,36,30.49,30.42,30.36,10,10,10,12,4,14,0.00,0,,257
2011-10-10,76,64,51,54,52,51,93,68,43,30.37,30.30,30.24,10,10,7,10,5,14,0.00,0,,300
2011-10-11,72,63,53,57,54,51,93,75,57,30.26,30.20,30.14,10,10,8,10,2,15,0.00,0,,132
2011-10-12,61,55,49,55,48,45,100,81,62,30.15,30.05,29.94,10,9,4,18,9,22,0.29,7,Rain,128
2011-10-13,64,57,50,59,55,48,100,95,90,29.94,29.80,29.63,10,7,1,17,10,24,0.43,8,Rain,129
2011-10-14,68,58,48,61,56,45,100,87,73,29.65,29.46,29.33,10,7,1,21,11,30,0.73,7,Rain-Thunderstorm,191
2011-10-15,51,48,45,45,39,36,86,71,56,29.72,29.56,29.48,10,9,2,30,15,41,0.02,7,Rain,238
2011-10-16,56,51,45,47,41,35,93,74,55,29.83,29.75,29.66,10,9,4,23,10,33,0.31,7,Rain,240
2011-10-17,59,51,42,47,35,24,93,61,28,29.77,29.71,29.65,10,10,9,23,11,32,T,2,,244
2011-10-18,55,50,45,38,33,25,61,52,42,29.92,29.85,29.77,10,10,10,14,6,18,0.00,5,,223
2011-10-19,61,54,47,54,48,36,93,77,61,29.86,29.63,29.33,10,8,2,23,12,31,0.23,7,Rain,87
2011-10-20,59,52,45,58,49,35,100,83,65,29.61,29.37,29.22,10,8,1,22,12,30,0.54,7,Rain,191
2011-10-21,48,46,43,40,38,36,83,77,70,30.02,29.85,29.64,10,10,10,18,10,24,T,8,Rain,244
2011-10-22,48,44,40,40,38,35,93,79,65,30.12,30.07,30.00,10,10,8,14,4,16,0.03,8,Rain,282
2011-10-23,54,46,38,38,36,34,92,71,50,30.15,30.11,30.08,10,10,10,12,4,15,0.00,3,,223
2011-10-24,59,50,41,47,42,36,93,73,53,30.09,30.00,29.91,10,9,3,18,8,26,0.05,4,Rain,207
2011-10-25,55,48,41,43,36,32,89,68,46,30.14,30.06,29.96,10,10,10,18,9,28,T,4,,311
2011-10-26,53,48,42,49,45,39,100,90,80,30.04,29.82,29.72,10,8,0,12,5,14,0.12,8,Fog-Rain,233
2011-10-27,46,39,32,48,37,28,96,93,89,30.05,29.78,29.69,10,5,0,18,10,23,0.63,8,Fog-Rain-Snow,356
2011-10-28,42,35,28,31,28,27,100,80,60,30.27,30.19,30.05,10,7,0,12,5,16,0.00,3,Fog,279
2011-10-29,35,33,30,30,29,27,92,84,75,30.22,30.08,29.99,10,6,0,12,6,17,0.10,8,Fog-Snow,42
2011-10-30,45,36,27,29,26,22,92,71,49,30.33,30.21,30.01,10,10,10,17,6,23,0.00,1,,320
2011-10-31,46,37,28,30,27,24,92,71,49,30.35,30.32,30.27,10,10,10,16,7,22,0.00,1,,165